User: anonymous   Login
Location: Altleiningen
(49.5078°N, 8.0741°E)
Time: 11:17:04
(UTC+00:00)
Language:

SJ 16-02 - Orbit

View from above orbital plane
View from above orbital plane
View from above satellite
View from above satellite

Ground track
Ground track

The orbit data is extracted from the following two-line orbital elements,

1 41634U 16043A   21134.23813926 -.00000570  00000-0 -62315-4 0  9992
2 41634  75.0024 174.1758 0008625 227.2204 132.8197 14.85798192264367
Epoch (UTC): 14 May 2021 05:42:55
Eccentricity: 0.0008625
inclination: 75.0024°
perigee height: 605 km
apogee height: 617 km
right ascension of ascending node: 174.1758°
argument of perigee: 227.2204°
revolutions per day: 14.85798192
mean anomaly at epoch: 132.8197°
orbit number at epoch: 26436

The dashed part of the orbit path shows where the satellite is in the earth's shadow,  

DLR